{"data":{"norad_id":56728,"epoch":"2026-09-19T10:10:35.274432Z","epoch_age_seconds":108435,"freshness":"FRESH","line1":"1 56728U 23068U   26262.42401938  .00000339  00000+0  49894-4 0  9998","line2":"2 56728  86.6104 314.3165 0002579  89.9797 270.1716 14.72249692179883","mean_motion":14.72249692,"eccentricity":0.0002579,"inclination_deg":86.6104,"raan_deg":314.3165,"arg_perigee_deg":89.9797,"mean_anomaly_deg":270.1716,"bstar":4.9894e-5,"rev_number":17988,"period_min":97.809495755018,"perigee_km":652.08178740726,"apogee_km":655.70890969264,"semimajor_km":7032.0323485499,"source":"CELESTRAK","updated_at":"2026-09-20T09:00:36.357618Z"}}